Content
SEND FEEDBACK

Daily
Averages
Monthly
Summary
United States of America

BRIDGER, MONTANA


Home > North America > United States > Montana
Elevation: 4502 feet     Latitude: 45 23N     Longitude: 108 43W

WEATHER
 
SELECT A DAY
Number of Records: 195,120;   Date Range: 1/1/95 - 12/26/14
 
SHARE

PRINT THIS DATA

[ ← Previous Day ]
WEATHER ALMANAC - JANUARY 31, 2013
[ Next Day → ]
[ °C ]   °F
Weather ElementAverageHighLow
Temperature10.5 °F28 °F (7:53 pm)1 °F (5:46 am)
Dewpoint6.3 °F21 °F (6:53 pm)-2 °F (4:53 am)
Humidity83.1 %92 % (12:59 am)75 % (5:53 pm)
Barometer30.19 in30.34 in (6:53 am)30.02 in (12:59 am)
Wind Speed12.6 mph25.3 mph (10:53 pm)
Weather ElementAverage
Visibility5.9 mi
Wind DirectionSE (134.7 °)

Weather ElementTotal
Precipitation0.12 in
Heating Degree Days50.5 (Base 65)
Averaged from 38 records on January 31, 2013
WEATHER CONDITIONS BREAKOUT
WIND DIRECTION BREAKOUT
WEATHER BY HOUR - JANUARY 31, 2013
[ °C ]   °F
Local TimeTemperatureDewpointHumidityBarometerVisibilityWind DirectionWind SpeedGust SpeedPrecipitationEventsConditions
12:59 AM12.9 °F10.9 °F92 %30.02 in7.0 miENE (60°)12.7 mph0.00 inSnowLight Snow
1:18 AM12.9 °F10.0 °F88 %30.04 in7.0 miENE (60°)12.7 mph0.00 inSnowLight Snow
1:53 AM10.0 °F7.0 °F87 %30.19 in3.0 miENE (60°)16.1 mph0.00 inSnowLight Snow
1:58 AM10.0 °F6.1 °F84 %30.05 in4.0 miENE (60°)12.7 mph0.00 inSnowLight Snow
2:53 AM8.1 °F5.0 °F87 %30.24 in4.0 miNE (40°)13.8 mph0.01 inSnowLight Snow
3:06 AM7.0 °F3.9 °F87 %30.08 in2.0 miNE (40°)16.1 mph0.00 inSnowLight Snow
3:16 AM6.1 °F1.9 °F83 %30.09 in1.2 miNE (50°)15.0 mph0.01 inSnowLight Snow
3:31 AM5.0 °F1.9 °F87 %30.09 in1.5 miNE (50°)17.3 mph0.01 inSnowLight Snow
3:53 AM3.9 °F0.0 °F84 %30.28 in1.8 miNE (40°)16.1 mph0.01 inSnowLight Snow
4:00 AM3.2 °F-0.4 °F85 %30.11 in2.0 miNE (50°)18.4 mphSnowLight Snow
4:08 AM1.9 °F-0.9 °F88 %30.12 in1.5 miNE (50°)15.0 mph0.01 inSnowLight Snow
4:15 AM1.9 °F-0.9 °F88 %30.13 in1.2 miENE (60°)12.7 mph0.01 inSnowLight Snow
4:27 AM1.9 °F-0.9 °F88 %30.12 in1.5 miENE (60°)8.1 mph0.01 inSnowLight Snow
4:44 AM1.9 °F-0.9 °F88 %30.11 in2.5 miNE (50°)6.9 mph0.02 inSnowLight Snow
4:53 AM1.9 °F-2.0 °F83 %30.30 in4.0 miNE (40°)6.9 mph0.02 inSnowLight Snow
5:39 AM1.9 °F-2.0 °F83 %30.15 in2.5 miNE (50°)9.2 mph0.00 inSnowLight Snow
5:46 AM1.0 °F-2.0 °F87 %30.14 in3.0 miENE (60°)6.9 mph0.00 inSnowLight Snow
5:53 AM1.0 °F-2.0 °F87 %30.32 in6.0 miNE (40°)6.9 mph0.00 inSnowLight Snow
6:53 AM1.0 °F-2.0 °F87 %30.34 in5.0 miNNE (30°)5.8 mph0.00 inSnowLight Snow
7:53 AM1.9 °F-2.0 °F83 %30.33 in6.0 miNorth (360°)3.5 mph0.01 inSnowLight Snow
8:53 AM3.0 °F-0.9 °F84 %30.33 in5.0 miNorth (360°)4.6 mph0.00 inSnowLight Snow
9:01 AM3.0 °F-0.9 °F84 %30.15 in2.0 miNNE (20°)5.8 mph0.00 inSnowLight Snow
9:09 AM3.0 °F-0.9 °F84 %30.15 in4.0 miNNE (30°)4.6 mph0.00 inSnowLight Snow
9:53 AM3.9 °F0.0 °F84 %30.34 in7.0 miNNW (340°)3.5 mph0.00 inSnowLight Snow
10:53 AM6.1 °F3.0 °F87 %30.32 in9.0 miSouth (170°)3.5 mph0.00 inSnowLight Snow
11:53 AM8.1 °F3.9 °F83 %30.32 in10.0 miSSW (210°)9.2 mph0.00 inOvercast
12:53 PM12.0 °F7.0 °F80 %30.27 in10.0 miSSW (210°)16.1 mphOvercast
1:53 PM15.1 °F10.0 °F80 %30.25 in10.0 miSSW (210°)12.7 mphMostly Cloudy
2:53 PM17.1 °F10.9 °F77 %30.23 in10.0 miSSW (210°)9.2 mphOvercast
3:53 PM19.9 °F14.0 °F78 %30.22 in10.0 miSW (220°)6.9 mphOvercast
4:53 PM21.0 °F16.0 °F81 %30.21 in10.0 miSW (220°)15.0 mphOvercast
5:53 PM27.0 °F19.9 °F75 %30.18 in10.0 miSW (230°)20.7 mphOvercast
6:53 PM27.0 °F21.0 °F78 %30.18 in10.0 miSW (230°)20.7 mphOvercast
7:53 PM28.0 °F21.0 °F75 %30.17 in10.0 miSW (230°)21.9 mphOvercast
8:53 PM28.0 °F21.0 °F75 %30.16 in10.0 miSW (230°)21.9 mphOvercast
9:53 PM27.0 °F21.0 °F78 %30.16 in10.0 miSW (230°)23.0 mphOvercast
10:53 PM28.0 °F21.0 °F75 %30.14 in10.0 miSW (230°)25.3 mphOvercast
11:53 PM28.0 °F21.0 °F75 %30.13 in10.0 miSW (230°)19.6 mphOvercast
Hourly data recorded from KBIL, located miles away from Bridger, Montana







STORIES FROM OUR PARTNERS